SCP
0 0 0 0 0 0 0 0 0 0 0 0 0 0 0 0 0 0 0 0 0 0 -0 -0 -0 0 -0 0 -0 0 0 -0 -0 -0 0 0 0 0 0 0 0 0 0 -0
0 0 0 0 0 0 0 0 0 0 0 0 0 0 0 0 0 0 0 0 0 -0 -0 -0 -0 -0 0 -0 0 0 0 0 -0 0 0 0 0 0 0 0 0 0 0 -0
0 0 0 0 0 0 0 0 0 0 0 0 0 0 0 0 0 0 0 0 0 -0 -0 -0 -0 0 -0 0 0 -0 0 0 0 0 0 0 0 0 0 0 0 0 0 -0
0 0 0 0 0 0 0 0 0 0 0 0 0 0 0 0 0 0 0 0 -0 -0 0 -0 0 -0 -0 -0 -0 0 0 -0 -0 -0 0 0 0 0 0 0 0 0 0 -0
0 0 0 0 0 0 0 0 0 0 0 0 0 0 0 0 0 0 0 0 -0 0 0 0 -0 -0 -0 -0 0 0 0 -0 -0 -0 -0 0 0 0 0 0 0 0 0 -0
0 0 0 0 0 0 0 0 0 0 0 0 0 0 0 0 0 0 0 0 0 0 0 0 -0 -0 -0 -0 -0 -0 0 0 0 -0 -0 0 0 0 0 0 0 0 0 -0
0 0 0 0 0 0 0 0 0 0 0 0 0 0 0 0 0 0 0 0 0 0 0 0 0 -0 -0 -0 -0 -0 -0 -0 -0 0 0 0 0 0 0 0 0 0 0 0
0 0 0 0 0 0 0 0 0 0 0 0 0 0 0 0 0 0 0 0 0 0 0 0 -0 0 0 0 -0 -0 -0 -0 0 0 0 0 0 0 0 0 0 0 0 0
0 0 0 0 0 0 0 0 0 0 0 0 0 0 0 0 0 0 0 0 0 0 0 0 0 0 -0 -0 -0 -0 -0 -0 0 0 0 0 0 0 0 0 0 0 0 0
0 0 0 0 0 0 0 0 0 0 0 0 0 0 0 0 0 0 0 0 0 0 0 0 0 0 0 -0 -0 0 0 0 -0 0 0 0 -0 0 0 1 0 0 0 0
0 0 0 0 0 0 0 0 0 0 0 0 0 0 0 0 0 0 0 0 0 0 0 0 0 0 0 0 0 0 0 -0 0 0 0 0 0 0 0 0 0 0 0 0
0 0 0 0 0 0 0 0 0 0 0 0 0 0 -0 0 -0 0 0 0 0 0 0 0 0 0 0 0 0 0 -0 0 0 0 0 0 0 0 0 0 0 0 0 0
0 0 0 0 0 0 0 0 0 0 0 0 0 0 0 0 0 0 0 0 0 0 0 0 0 0 0 -0 -0 0 0 0 0 0 0 -0 0 0 0 0 0 0 0 0
0 0 0 0 0 0 0 0 0 0 0 0 0 0 0 0 0 0 0 0 0 0 0 0 0 0 0 0 0 -0 -0 -0 -0 -0 0 0 0 0 0 0 0 0 0 0
0 0 0 0 0 0 0 0 0 0 0 0 0 0 0 -0 0 0 0 0 0 0 -0 0 0 0 0 0 0 -0 -0 0 -0 0 0 0 0 0 0 0 0 0 0 0
0 0 0 0 0 0 0 0 0 0 0 0 0 0 0 0 0 0 -0 0 0 0 0 0 0 0 -0 -0 -0 -0 -0 -0 -0 -0 0 0 0 0 0 0 0 0 0 0
-0 0 0 0 0 0 0 0 0 0 0 0 0 0 0 -0 0 0 0 0 0 0 0 0 0 -0 0 -0 -0 0 0 -0 -0 0 0 0 0 0 -0 0 0 0 0 0
0 0 0 0 0 0 0 0 -0 0 0 0 0 0 -0 0 0 0 0 -0 0 0 0 0 0 0 0 -0 0 0 -0 -0 -0 -0 -0 0 -0 -0 0 0 0 0 0 0
0 0 0 0 0 0 0 0 0 0 0 0 0 0 -0 0 0 0 0 0 -0 0 0 0 0 0 -0 -0 0 -0 -0 0 0 -0 -0 -0 -0 0 0 0 0 0 0 0
0 0 0 0 0 0 0 0 0 0 0 0 0 0 0 0 0 0 0 0 0 0 0 0 0 0 0 0 0 -0 -0 0 0 0 0 0 0 0 0 0 0 0 -0 0
0 0 0 0 0 0 0 0 0 0 0 0 0 0 0 0 0 0 0 0 0 0 0 -0 0 0 0 0 0 0 -0 -0 -0 0 -0 -0 0 0 0 -0 -0 0 0 -0
0 0 0 0 0 0 0 0 0 0 0 0 0 0 0 0 0 0 0 0 0 -0 0 0 0 -0 0 0 0 -0 0 0 -0 -0 0 -0 -0 -0 0 0 0 0 0 0
0 0 0 0 0 0 0 0 0 0 0 0 0 0 0 0 0 0 0 0 0 0 0 -0 0 0 0 0 0 0 -0 -0 -0 -0 -0 -0 -0 -0 -0 0 0 0 0 0
0 0 0 0 0 0 0 0 0 -0 0 -0 0 0 0 0 0 0 0 0 0 -0 -0 0 -0 0 0 0 0 0 -0 -0 0 -0 -0 -0 -0 -0 0 -0 -0 0 0 0
0 0 0 0 0 0 0 0 0 0 0 0 0 0 0 0 0 0 0 0 0 0 0 0 0 0 0 0 0 0 0 -0 0 0 -0 -0 -0 -0 -0 -0 -0 -0 0 0
0 0 0 0 0 0 0 0 0 0 0 0 0 0 0 0 0 0 0 0 0 -0 0 0 0 0 -0 -0 -0 0 0 0 0 -0 -0 -0 -0 -0 0 0 -0 -0 -0 0
0 0 0 0 0 0 0 0 0 0 0 0 0 0 0 0 0 0 0 0 0 0 0 0 0 0 -0 -0 -0 0 0 0 0 0 -0 0 0 0 0 0 0 0 -0 -0
Wind_Speed_500mb
62 65 64 61 68 68 56 20 5 4 10 8 4 1 9 31 35 31 7 9 9 8 10 10 9 7 8 20 13 13 3 4 8 19 29 26 8 12 10 4 13 9 8 32
60 63 64 58 60 60 59 34 12 5 13 5 7 11 20 32 21 30 7 10 7 5 6 8 10 7 16 13 4 4 9 5 7 19 3 14 11 6 1 8 11 31 11 17
60 61 62 57 55 52 42 17 8 11 12 30 4 13 12 22 24 32 26 17 10 12 13 9 12 22 8 15 15 20 2 7 11 11 15 15 15 16 14 5 7 21 32 31
59 59 60 60 52 49 27 13 5 9 8 15 15 16 9 28 13 13 30 8 13 16 11 18 7 9 17 13 31 9 13 9 20 24 34 33 35 33 25 16 12 7 14 34
58 55 55 58 56 48 14 15 13 17 29 24 13 10 6 31 22 13 16 16 33 16 20 19 33 24 17 18 11 15 11 9 10 29 35 36 38 27 25 22 24 22 31 51
54 52 51 51 54 50 16 22 10 16 18 12 8 7 25 24 27 21 33 29 28 20 27 38 62 61 60 37 20 14 15 9 5 15 26 5 7 24 19 10 14 12 13 23
54 49 48 47 47 44 32 26 16 11 10 14 18 31 32 27 33 21 39 40 12 32 75 72 52 40 41 33 31 32 17 10 7 12 12 8 9 21 10 13 17 2 25 29
55 49 45 44 43 42 34 24 10 11 12 25 35 21 27 37 43 12 32 37 57 54 32 9 13 9 11 8 15 25 28 16 6 5 5 6 5 18 17 19 9 7 26 15
56 50 44 42 41 41 43 31 10 18 19 9 16 45 31 21 15 15 33 44 41 33 5 5 7 6 7 9 19 16 18 17 5 7 7 3 2 18 42 23 9 16 27 22
57 50 43 39 39 36 40 37 9 17 26 42 23 10 20 24 10 10 23 33 20 26 9 6 5 5 10 8 12 8 5 6 13 14 9 5 7 28 43 10 6 42 48 31
59 51 41 38 38 36 35 45 8 16 22 63 68 49 46 37 37 6 16 17 12 10 11 7 6 5 7 7 8 11 4 5 2 6 2 8 35 33 13 13 21 34 46 36
58 52 42 37 37 35 33 50 38 30 38 52 71 76 57 59 38 39 8 4 3 7 5 5 5 5 5 8 8 8 5 8 4 4 2 8 32 30 22 35 28 39 48 47
54 43 37 40 35 34 33 50 49 33 25 49 23 17 3 11 19 14 13 7 5 8 8 6 4 8 3 3 4 6 6 8 8 10 10 2 29 50 49 37 42 59 38 29
50 43 41 37 36 36 39 50 49 29 16 11 18 17 54 26 33 28 20 33 10 14 12 7 5 6 10 3 7 4 5 12 11 8 10 18 37 47 49 59 54 64 54 58
46 46 39 38 37 39 47 49 41 32 26 9 31 64 3 32 22 29 32 23 9 7 7 7 6 8 7 2 4 2 11 3 1 5 17 10 20 37 30 42 53 72 67 46
47 40 38 33 34 35 41 12 3 2 43 11 7 24 21 17 22 32 35 27 16 11 8 11 11 20 3 4 4 3 23 32 13 6 26 25 28 29 46 44 40 51 42 46
46 42 38 35 32 27 22 10 8 16 22 11 11 12 11 11 28 33 36 33 21 16 9 9 9 7 7 1 4 16 25 20 21 31 23 10 22 26 33 35 31 41 48 56
41 35 35 32 29 29 24 12 17 23 19 9 5 8 14 12 11 11 21 21 24 17 10 9 6 3 5 2 15 18 16 10 15 34 20 17 18 22 27 19 30 37 45 44
32 28 26 14 4 5 7 8 24 30 22 7 8 4 7 4 7 12 9 16 5 11 6 5 5 4 1 10 10 8 18 4 15 25 22 21 22 26 27 26 30 34 37 36
27 11 6 3 3 7 8 6 7 7 9 11 8 13 7 10 3 7 6 3 4 1 7 5 5 5 9 12 17 20 12 11 13 13 23 27 24 22 25 27 26 25 26 29
22 16 8 7 6 8 6 8 10 10 7 14 16 29 10 13 6 7 3 4 4 2 4 3 1 4 7 9 12 9 1 8 7 13 15 17 20 20 27 25 22 27 26 29
36 27 30 15 4 8 6 6 7 9 9 13 12 22 30 9 10 3 5 1 6 5 3 4 3 7 21 17 12 8 9 9 9 14 25 24 29 33 36 32 30 29 20 15
10 6 6 5 4 4 9 9 7 6 9 15 16 6 17 10 8 5 5 4 7 11 5 5 7 19 30 31 17 16 11 3 9 17 24 25 26 32 33 32 38 32 33 28
6 7 8 8 8 10 10 8 6 15 26 31 18 10 9 9 5 5 5 7 2 7 4 7 4 25 29 24 16 8 18 12 11 12 18 27 26 28 29 31 43 52 44 51
8 8 9 11 25 23 31 39 36 43 45 48 10 6 12 1 5 2 2 2 5 9 8 6 11 18 2 15 18 15 31 29 19 11 14 20 23 29 34 34 35 47 56 56
10 14 9 21 19 22 22 30 34 35 36 36 6 6 6 6 8 5 9 8 10 8 6 19 28 32 39 23 21 18 18 20 24 16 14 14 15 21 28 26 27 37 47 55
11 16 26 41 42 40 48 43 43 52 32 5 8 9 13 5 6 5 8 9 8 14 13 15 27 28 43 36 25 26 23 21 19 17 16 11 7 12 11 17 26 28 34 41
Wind_Direction_500mb
356 358 358 357 355 354 4 358 3 328 295 323 20 295 280 328 325 339 299 290 304 331 303 290 297 326 229 339 337 319 118 149 264 253 249 261 236 248 149 195 255 265 229 256
354 356 359 359 359 353 350 342 309 8 319 43 318 299 323 308 324 318 291 286 299 272 279 321 269 245 300 304 285 316 355 280 307 316 310 237 252 182 7 232 231 245 235 259
351 352 355 358 1 353 348 340 350 337 345 353 16 319 314 328 300 297 339 294 325 342 311 255 286 299 289 291 196 267 39 243 226 228 273 325 286 291 300 315 254 247 245 284
349 350 351 352 357 1 4 1 316 13 304 326 316 304 279 312 322 305 319 305 328 313 297 299 257 306 310 294 279 177 163 234 260 266 269 267 262 262 256 247 257 263 290 276
347 348 350 352 353 3 18 0 350 325 296 291 303 317 334 312 320 298 301 315 310 304 293 272 293 281 279 258 281 173 177 251 235 281 267 263 243 235 241 243 263 254 251 275
342 344 347 351 351 355 1 345 332 306 280 297 319 255 321 299 322 306 296 304 305 305 287 280 282 267 264 242 227 229 195 211 237 271 337 176 227 241 219 250 215 225 248 276
335 338 340 344 347 348 342 348 319 283 280 313 296 296 304 319 318 299 305 321 314 299 305 301 291 265 241 228 234 225 239 201 206 280 279 231 104 42 1 236 194 255 295 259
328 329 333 335 339 340 335 338 291 284 283 301 293 291 320 306 320 305 305 311 311 318 308 326 317 339 10 347 223 229 217 222 264 248 281 318 62 30 355 1 290 347 338 357
326 321 322 328 329 331 329 337 289 272 292 248 284 310 290 302 319 318 314 320 333 346 323 332 331 342 305 315 334 333 193 206 194 282 284 289 126 320 325 307 241 358 344 326
324 321 317 319 321 326 319 329 300 271 275 281 270 278 304 297 288 298 304 336 332 356 356 3 324 341 330 324 331 353 26 332 242 252 268 287 29 291 305 198 1 319 328 307
318 317 310 314 318 319 311 312 327 265 256 280 279 276 271 276 286 268 325 335 7 324 357 6 327 306 329 304 314 337 345 273 236 230 259 278 351 349 25 318 305 314 326 340
316 312 303 305 311 312 307 303 316 298 270 262 281 290 281 272 278 256 264 240 258 297 325 337 303 308 295 309 323 351 3 328 285 29 226 348 305 282 345 354 332 321 339 349
318 316 308 309 303 307 300 299 307 300 280 302 285 287 142 315 301 270 204 214 193 247 310 284 280 281 261 316 302 294 297 349 4 339 7 237 346 0 359 357 343 358 338 329
315 315 309 308 302 302 299 295 299 271 262 274 281 294 298 290 259 228 250 254 230 247 276 260 267 261 218 262 275 334 313 348 331 293 315 334 352 0 350 342 355 342 352 52
311 315 315 307 297 302 301 303 292 264 207 292 296 310 341 298 243 205 214 236 227 202 244 232 244 250 253 80 310 314 335 291 21 299 320 306 318 357 331 341 349 349 344 45
312 317 316 309 303 307 317 325 328 260 198 284 300 307 307 318 218 215 221 229 221 203 220 247 252 246 212 19 312 247 351 342 339 280 316 317 302 341 9 24 337 344 19 49
309 311 308 302 300 288 269 241 168 160 207 271 296 292 285 298 209 224 234 227 225 220 242 238 246 278 94 30 310 305 329 337 345 352 340 2 346 338 16 26 354 13 48 52
315 310 301 296 287 277 282 241 185 181 211 257 269 271 305 215 213 240 222 194 199 219 235 257 246 349 99 222 248 301 313 316 4 8 21 346 23 23 30 11 20 20 31 37
321 313 309 307 168 200 282 240 213 222 203 250 242 228 269 343 323 270 237 210 178 190 205 257 125 328 198 235 258 281 3 1 1 18 31 26 26 35 26 11 13 19 19 21
335 332 332 157 137 334 318 239 225 203 230 243 252 218 257 314 24 271 311 311 236 192 241 139 83 254 257 242 266 278 282 11 32 44 53 45 40 39 35 22 12 17 21 21
3 341 293 290 287 307 246 215 186 184 241 227 239 216 221 227 165 227 297 252 307 332 317 6 205 290 241 179 234 255 275 178 49 80 70 57 51 56 42 39 40 34 25 20
318 302 293 307 263 234 248 223 199 195 233 212 204 210 201 225 197 117 333 179 25 250 337 187 216 232 187 175 192 175 142 111 77 100 78 76 70 70 61 54 53 40 34 17
332 257 249 218 246 235 216 219 238 228 223 210 195 164 165 159 175 90 76 58 242 319 31 244 216 169 147 165 155 151 152 144 101 105 83 75 75 71 62 59 46 36 39 31
288 242 256 200 208 237 205 225 234 284 293 263 187 161 152 155 108 135 111 235 121 349 329 249 253 168 150 155 158 167 164 153 98 91 77 57 54 48 49 42 38 41 43 48
262 255 245 226 230 258 277 280 274 285 298 268 168 130 149 89 124 170 100 5 272 196 233 237 153 129 124 168 172 142 141 150 139 131 80 58 53 65 57 39 38 36 36 42
236 239 271 278 293 287 305 312 314 328 323 340 299 136 133 191 151 127 209 151 225 248 218 186 176 211 223 232 206 187 164 141 137 124 95 78 75 80 83 72 56 40 37 39
231 241 246 264 279 275 282 291 296 299 290 179 76 275 202 136 132 181 180 205 214 225 230 228 197 187 188 206 222 187 171 153 146 142 123 101 104 77 98 59 57 40 37 42
Wind_Speed_850mb
62 65 64 61 68 68 56 20 5 4 10 8 4 1 9 31 35 31 7 9 9 8 10 10 9 7 8 20 13 13 3 4 8 19 29 26 8 12 10 4 13 9 8 32
60 63 64 58 60 60 59 34 12 5 13 5 7 11 20 32 21 30 7 10 7 5 6 8 10 7 16 13 4 4 9 5 7 19 3 14 11 6 1 8 11 31 11 17
60 61 62 57 55 52 42 17 8 11 12 30 4 13 12 22 24 32 26 17 10 12 13 9 12 22 8 15 15 20 2 7 11 11 15 15 15 16 14 5 7 21 32 31
59 59 60 60 52 49 27 13 5 9 8 15 15 16 9 28 13 13 30 8 13 16 11 18 7 9 17 13 31 9 13 9 20 24 34 33 35 33 25 16 12 7 14 34
58 55 55 58 56 48 14 15 13 17 29 24 13 10 6 31 22 13 16 16 33 16 20 19 33 24 17 18 11 15 11 9 10 29 35 36 38 27 25 22 24 22 31 51
54 52 51 51 54 50 16 22 10 16 18 12 8 7 25 24 27 21 33 29 28 20 27 38 62 61 60 37 20 14 15 9 5 15 26 5 7 24 19 10 14 12 13 23
54 49 48 47 47 44 32 26 16 11 10 14 18 31 32 27 33 21 39 40 12 32 75 72 52 40 41 33 31 32 17 10 7 12 12 8 9 21 10 13 17 2 25 29
55 49 45 44 43 42 34 24 10 11 12 25 35 21 27 37 43 12 32 37 57 54 32 9 13 9 11 8 15 25 28 16 6 5 5 6 5 18 17 19 9 7 26 15
56 50 44 42 41 41 43 31 10 18 19 9 16 45 31 21 15 15 33 44 41 33 5 5 7 6 7 9 19 16 18 17 5 7 7 3 2 18 42 23 9 16 27 22
57 50 43 39 39 36 40 37 9 17 26 42 23 10 20 24 10 10 23 33 20 26 9 6 5 5 10 8 12 8 5 6 13 14 9 5 7 28 43 10 6 42 48 31
59 51 41 38 38 36 35 45 8 16 22 63 68 49 46 37 37 6 16 17 12 10 11 7 6 5 7 7 8 11 4 5 2 6 2 8 35 33 13 13 21 34 46 36
58 52 42 37 37 35 33 50 38 30 38 52 71 76 57 59 38 39 8 4 3 7 5 5 5 5 5 8 8 8 5 8 4 4 2 8 32 30 22 35 28 39 48 47
54 43 37 40 35 34 33 50 49 33 25 49 23 17 3 11 19 14 13 7 5 8 8 6 4 8 3 3 4 6 6 8 8 10 10 2 29 50 49 37 42 59 38 29
50 43 41 37 36 36 39 50 49 29 16 11 18 17 54 26 33 28 20 33 10 14 12 7 5 6 10 3 7 4 5 12 11 8 10 18 37 47 49 59 54 64 54 58
46 46 39 38 37 39 47 49 41 32 26 9 31 64 3 32 22 29 32 23 9 7 7 7 6 8 7 2 4 2 11 3 1 5 17 10 20 37 30 42 53 72 67 46
47 40 38 33 34 35 41 12 3 2 43 11 7 24 21 17 22 32 35 27 16 11 8 11 11 20 3 4 4 3 23 32 13 6 26 25 28 29 46 44 40 51 42 46
46 42 38 35 32 27 22 10 8 16 22 11 11 12 11 11 28 33 36 33 21 16 9 9 9 7 7 1 4 16 25 20 21 31 23 10 22 26 33 35 31 41 48 56
41 35 35 32 29 29 24 12 17 23 19 9 5 8 14 12 11 11 21 21 24 17 10 9 6 3 5 2 15 18 16 10 15 34 20 17 18 22 27 19 30 37 45 44
32 28 26 14 4 5 7 8 24 30 22 7 8 4 7 4 7 12 9 16 5 11 6 5 5 4 1 10 10 8 18 4 15 25 22 21 22 26 27 26 30 34 37 36
27 11 6 3 3 7 8 6 7 7 9 11 8 13 7 10 3 7 6 3 4 1 7 5 5 5 9 12 17 20 12 11 13 13 23 27 24 22 25 27 26 25 26 29
22 16 8 7 6 8 6 8 10 10 7 14 16 29 10 13 6 7 3 4 4 2 4 3 1 4 7 9 12 9 1 8 7 13 15 17 20 20 27 25 22 27 26 29
36 27 30 15 4 8 6 6 7 9 9 13 12 22 30 9 10 3 5 1 6 5 3 4 3 7 21 17 12 8 9 9 9 14 25 24 29 33 36 32 30 29 20 15
10 6 6 5 4 4 9 9 7 6 9 15 16 6 17 10 8 5 5 4 7 11 5 5 7 19 30 31 17 16 11 3 9 17 24 25 26 32 33 32 38 32 33 28
6 7 8 8 8 10 10 8 6 15 26 31 18 10 9 9 5 5 5 7 2 7 4 7 4 25 29 24 16 8 18 12 11 12 18 27 26 28 29 31 43 52 44 51
8 8 9 11 25 23 31 39 36 43 45 48 10 6 12 1 5 2 2 2 5 9 8 6 11 18 2 15 18 15 31 29 19 11 14 20 23 29 34 34 35 47 56 56
10 14 9 21 19 22 22 30 34 35 36 36 6 6 6 6 8 5 9 8 10 8 6 19 28 32 39 23 21 18 18 20 24 16 14 14 15 21 28 26 27 37 47 55
11 16 26 41 42 40 48 43 43 52 32 5 8 9 13 5 6 5 8 9 8 14 13 15 27 28 43 36 25 26 23 21 19 17 16 11 7 12 11 17 26 28 34 41
Wind_Direction_850mb
356 358 358 357 355 354 4 358 3 328 295 323 20 295 280 328 325 339 299 290 304 331 303 290 297 326 229 339 337 319 118 149 264 253 249 261 236 248 149 195 255 265 229 256
354 356 359 359 359 353 350 342 309 8 319 43 318 299 323 308 324 318 291 286 299 272 279 321 269 245 300 304 285 316 355 280 307 316 310 237 252 182 7 232 231 245 235 259
351 352 355 358 1 353 348 340 350 337 345 353 16 319 314 328 300 297 339 294 325 342 311 255 286 299 289 291 196 267 39 243 226 228 273 325 286 291 300 315 254 247 245 284
349 350 351 352 357 1 4 1 316 13 304 326 316 304 279 312 322 305 319 305 328 313 297 299 257 306 310 294 279 177 163 234 260 266 269 267 262 262 256 247 257 263 290 276
347 348 350 352 353 3 18 0 350 325 296 291 303 317 334 312 320 298 301 315 310 304 293 272 293 281 279 258 281 173 177 251 235 281 267 263 243 235 241 243 263 254 251 275
342 344 347 351 351 355 1 345 332 306 280 297 319 255 321 299 322 306 296 304 305 305 287 280 282 267 264 242 227 229 195 211 237 271 337 176 227 241 219 250 215 225 248 276
335 338 340 344 347 348 342 348 319 283 280 313 296 296 304 319 318 299 305 321 314 299 305 301 291 265 241 228 234 225 239 201 206 280 279 231 104 42 1 236 194 255 295 259
328 329 333 335 339 340 335 338 291 284 283 301 293 291 320 306 320 305 305 311 311 318 308 326 317 339 10 347 223 229 217 222 264 248 281 318 62 30 355 1 290 347 338 357
326 321 322 328 329 331 329 337 289 272 292 248 284 310 290 302 319 318 314 320 333 346 323 332 331 342 305 315 334 333 193 206 194 282 284 289 126 320 325 307 241 358 344 326
324 321 317 319 321 326 319 329 300 271 275 281 270 278 304 297 288 298 304 336 332 356 356 3 324 341 330 324 331 353 26 332 242 252 268 287 29 291 305 198 1 319 328 307
318 317 310 314 318 319 311 312 327 265 256 280 279 276 271 276 286 268 325 335 7 324 357 6 327 306 329 304 314 337 345 273 236 230 259 278 351 349 25 318 305 314 326 340
316 312 303 305 311 312 307 303 316 298 270 262 281 290 281 272 278 256 264 240 258 297 325 337 303 308 295 309 323 351 3 328 285 29 226 348 305 282 345 354 332 321 339 349
318 316 308 309 303 307 300 299 307 300 280 302 285 287 142 315 301 270 204 214 193 247 310 284 280 281 261 316 302 294 297 349 4 339 7 237 346 0 359 357 343 358 338 329
315 315 309 308 302 302 299 295 299 271 262 274 281 294 298 290 259 228 250 254 230 247 276 260 267 261 218 262 275 334 313 348 331 293 315 334 352 0 350 342 355 342 352 52
311 315 315 307 297 302 301 303 292 264 207 292 296 310 341 298 243 205 214 236 227 202 244 232 244 250 253 80 310 314 335 291 21 299 320 306 318 357 331 341 349 349 344 45
312 317 316 309 303 307 317 325 328 260 198 284 300 307 307 318 218 215 221 229 221 203 220 247 252 246 212 19 312 247 351 342 339 280 316 317 302 341 9 24 337 344 19 49
309 311 308 302 300 288 269 241 168 160 207 271 296 292 285 298 209 224 234 227 225 220 242 238 246 278 94 30 310 305 329 337 345 352 340 2 346 338 16 26 354 13 48 52
315 310 301 296 287 277 282 241 185 181 211 257 269 271 305 215 213 240 222 194 199 219 235 257 246 349 99 222 248 301 313 316 4 8 21 346 23 23 30 11 20 20 31 37
321 313 309 307 168 200 282 240 213 222 203 250 242 228 269 343 323 270 237 210 178 190 205 257 125 328 198 235 258 281 3 1 1 18 31 26 26 35 26 11 13 19 19 21
335 332 332 157 137 334 318 239 225 203 230 243 252 218 257 314 24 271 311 311 236 192 241 139 83 254 257 242 266 278 282 11 32 44 53 45 40 39 35 22 12 17 21 21
3 341 293 290 287 307 246 215 186 184 241 227 239 216 221 227 165 227 297 252 307 332 317 6 205 290 241 179 234 255 275 178 49 80 70 57 51 56 42 39 40 34 25 20
318 302 293 307 263 234 248 223 199 195 233 212 204 210 201 225 197 117 333 179 25 250 337 187 216 232 187 175 192 175 142 111 77 100 78 76 70 70 61 54 53 40 34 17
332 257 249 218 246 235 216 219 238 228 223 210 195 164 165 159 175 90 76 58 242 319 31 244 216 169 147 165 155 151 152 144 101 105 83 75 75 71 62 59 46 36 39 31
288 242 256 200 208 237 205 225 234 284 293 263 187 161 152 155 108 135 111 235 121 349 329 249 253 168 150 155 158 167 164 153 98 91 77 57 54 48 49 42 38 41 43 48
262 255 245 226 230 258 277 280 274 285 298 268 168 130 149 89 124 170 100 5 272 196 233 237 153 129 124 168 172 142 141 150 139 131 80 58 53 65 57 39 38 36 36 42
236 239 271 278 293 287 305 312 314 328 323 340 299 136 133 191 151 127 209 151 225 248 218 186 176 211 223 232 206 187 164 141 137 124 95 78 75 80 83 72 56 40 37 39
231 241 246 264 279 275 282 291 296 299 290 179 76 275 202 136 132 181 180 205 214 225 230 228 197 187 188 206 222 187 171 153 146 142 123 101 104 77 98 59 57 40 37 42